Temp
-4 -3 -3 -2 -2 -3 -3 -3 -2 -2 -2 -2 -2 -2 -2 -1 -1 -1 -1 -1 1 2 4 4 4 5 5 5 6 6 6 6 6 5 6 5 6 6 7 7 6 6 5 6
-3 -3 -3 -3 -3 -3 -3 -3 -3 -2 -2 -1 -2 -2 -1 -1 -1 -1 -2 -0 0 2 3 3 3 3 2 3 4 5 5 5 5 5 5 4 5 5 5 6 6 6 6 6
-4 -3 -3 -4 -3 -3 -3 -4 -4 -3 -3 -2 -2 -2 1 -0 -1 -2 -2 -0 -0 1 -0 1 2 1 1 1 2 3 4 4 5 5 4 3 3 4 4 5 5 5 5 5
-3 -3 -3 -4 -4 -4 -4 -4 -4 -4 -4 -2 -1 -1 0 -1 -1 -2 -0 0 0 0 -1 -1 -1 0 0 0 1 1 2 3 3 3 3 2 3 3 4 4 5 5 5 5
-3 -3 -4 -4 -4 -5 -5 -4 -4 -5 -4 -2 -2 -1 0 -1 -1 -0 -0 1 -0 -1 1 0 -0 0 0 1 2 2 1 1 2 2 2 2 2 2 3 3 3 4 4 5
-2 -3 -3 -4 -4 -4 -4 -4 -4 -4 -4 -3 -1 -1 0 -0 0 0 -1 -1 -1 -1 -0 -0 -0 0 1 1 2 2 2 2 1 1 1 1 1 1 2 2 3 3 4 6
-3 -3 -3 -3 -3 -4 -4 -4 -4 -4 -4 -2 -0 -1 0 -0 0 0 -1 -1 -1 -1 -0 -0 -0 0 1 1 1 1 1 1 1 1 0 1 1 1 2 2 2 2 4 5
-3 -2 -3 -3 -3 -3 -4 -4 -4 -3 -3 -1 -0 -1 1 0 0 -0 -1 -1 -1 -1 -0 -0 0 0 0 1 1 1 1 1 1 1 1 0 0 1 1 1 1 2 2 4
-4 -2 -2 -2 -2 -3 -4 -3 -4 -4 -2 -3 1 1 1 0 -0 -1 -1 -1 -1 -1 -0 -1 0 1 0 0 1 0 1 1 1 1 1 1 1 1 1 1 1 1 2 3
-4 -3 -1 -2 -2 -2 -3 -3 -3 -3 -4 -2 2 2 2 0 -1 -0 -1 -1 -1 -1 -1 0 -0 -0 0 -0 0 1 1 1 1 1 1 0 1 1 1 1 1 1 1 2
-3 -4 -2 -2 -2 -2 -3 -3 -4 -4 -3 -5 -5 0 1 0 0 0 -0 -0 -0 -1 -0 1 1 -0 -0 0 0 1 1 1 1 1 1 0 0 0 1 1 2 1 2 2
-3 -4 -3 -2 -1 -1 -2 -3 -3 -3 -3 -2 -2 -2 1 0 0 0 -0 -0 -0 -0 -0 -0 1 1 0 0 1 1 1 0 1 1 1 1 1 0 1 0 0 2 1 2
-1 -3 -3 -2 -1 -1 -1 -1 -2 -3 -3 -3 -3 -1 0 -0 -1 -0 -0 -0 -0 -0 -0 -0 0 1 1 1 1 1 1 1 0 1 2 1 2 1 0 0 1 2 2 2
-2 -1 -1 -1 0 -1 -3 -2 -2 -3 -4 -2 -1 1 0 -1 -1 -2 -0 0 -0 0 -0 0 0 0 1 1 1 0 1 0 0 0 1 1 1 1 2 1 2 2 2 2
-2 -1 -1 0 0 -1 -1 -1 -3 -3 -1 -3 1 1 2 0 -1 -2 -1 -1 -0 0 0 -0 0 0 0 0 1 0 0 0 -0 0 0 1 0 2 2 2 2 2 2 3
-1 -1 -2 1 1 0 1 1 1 -1 -1 -0 1 3 2 1 1 -0 -1 -1 -0 -0 -0 -0 -0 -0 -0 -0 0 0 0 0 0 -0 -0 0 0 0 0 1 1 2 2 1
-3 -2 -2 -1 -0 -1 1 5 5 4 3 3 2 3 2 2 1 1 0 -0 -0 -0 -0 -0 0 -0 -0 -0 -0 -0 -0 -0 0 0 -0 -1 -0 -0 -0 -0 0 0 0 0
-3 -2 -3 -2 -0 -4 4 4 4 4 4 3 4 3 2 3 2 2 1 1 0 -0 -0 -0 -0 0 0 -0 -0 -0 -1 -0 -0 -0 -0 -0 -1 -1 -1 -0 0 -0 -0 0
-1 -4 -3 -3 -3 2 3 4 4 4 5 4 4 3 3 3 3 2 2 1 1 1 0 -0 -0 -0 -0 -0 -0 -0 -1 -1 -1 -0 -0 -0 -0 -0 -0 -0 -1 -1 -0 -0
0 -3 -3 -5 -4 -2 3 3 3 3 4 4 3 2 2 2 2 3 3 2 1 1 1 1 0 -0 -0 -0 -0 -0 -0 -1 -1 -0 -0 -0 0 0 0 -0 -0 -0 -0 -0
-0 -2 -3 -3 -4 1 4 3 2 2 4 3 3 3 2 2 2 2 2 2 2 1 1 1 1 1 0 -0 -1 -1 -1 -1 -1 -1 -1 -1 -1 -1 -0 -1 -0 -0 -0 -0
1 1 -0 -3 -4 -2 4 3 3 3 3 3 2 2 2 2 2 2 2 3 2 2 2 2 1 1 1 1 0 -0 -1 -1 -1 -1 -1 -1 -1 -1 -1 -1 -1 -1 -1 -1
-1 1 1 1 4 4 4 3 3 2 2 2 2 1 2 2 2 1 2 2 2 2 2 2 2 2 1 1 1 1 1 -0 -1 -1 -1 -1 -1 -1 -1 -1 -1 -1 -1 -1
-1 -1 -1 -1 3 3 2 2 1 1 1 1 1 1 1 2 2 2 2 2 2 2 2 2 2 2 2 1 1 1 1 1 0 0 -0 -1 -1 -1 -0 -1 -0 -0 -0 0
-2 -2 -1 -1 2 2 1 1 1 2 2 1 2 1 1 1 2 2 2 2 2 2 2 2 2 2 2 2 1 1 1 1 1 1 1 0 -0 -0 -0 -0 -0 -0 -0 -0
1 1 -0 3 4 1 2 1 1 2 2 1 1 1 1 1 2 2 2 2 2 1 1 2 2 2 2 2 2 2 2 1 1 1 1 1 0 0 -0 -0 -1 -1 -1 -1
Height
3079 3077 3076 3076 3074 3073 3072 3072 3071 3070 3071 3072 3070 3067 3066 3067 3067 3065 3062 3056 3056 3051 3048 3045 3041 3037 3034 3030 3029 3028 3028 3032 3035 3038 3043 3048 3052 3058 3065 3074 3080 3088 3095 3100
3079 3075 3075 3073 3071 3070 3070 3069 3067 3068 3068 3068 3066 3062 3061 3062 3061 3059 3055 3050 3047 3041 3036 3036 3033 3027 3023 3019 3018 3016 3016 3019 3022 3027 3032 3038 3044 3050 3056 3061 3071 3078 3084 3091
3077 3075 3074 3072 3071 3070 3068 3067 3066 3067 3064 3063 3062 3055 3050 3055 3056 3054 3050 3047 3039 3034 3031 3028 3025 3020 3017 3013 3010 3009 3009 3009 3012 3016 3021 3028 3033 3038 3042 3047 3058 3066 3073 3081
3075 3074 3072 3070 3069 3068 3065 3064 3064 3062 3064 3062 3061 3055 3049 3051 3053 3049 3046 3041 3035 3032 3029 3024 3019 3017 3013 3009 3004 3002 3001 3002 3004 3008 3011 3015 3022 3028 3033 3040 3046 3056 3062 3070
3077 3072 3070 3069 3069 3066 3065 3062 3061 3060 3061 3062 3058 3059 3047 3050 3048 3046 3042 3036 3031 3028 3025 3021 3017 3011 3007 3002 2999 2997 2997 2996 2999 3001 3004 3008 3011 3018 3025 3030 3036 3045 3052 3060
3074 3073 3070 3068 3066 3065 3064 3063 3061 3060 3060 3059 3052 3055 3048 3046 3045 3043 3039 3035 3031 3027 3023 3019 3015 3008 3003 2999 2996 2993 2993 2992 2992 2993 2996 2999 3006 3013 3017 3022 3026 3032 3042 3044
3073 3071 3069 3067 3065 3065 3064 3063 3061 3062 3059 3054 3050 3051 3044 3043 3043 3040 3037 3033 3030 3026 3022 3017 3013 3007 3002 2996 2990 2988 2989 2988 2986 2987 2988 2993 2999 3005 3011 3015 3019 3024 3032 3039
3076 3071 3069 3066 3066 3065 3064 3063 3063 3059 3055 3051 3049 3045 3040 3040 3040 3037 3034 3031 3029 3025 3021 3016 3011 3005 3000 2995 2990 2986 2986 2986 2984 2982 2985 2988 2993 3000 3006 3011 3013 3017 3023 3030
3076 3072 3069 3067 3066 3066 3063 3063 3062 3061 3056 3054 3044 3042 3040 3038 3037 3035 3034 3031 3028 3024 3021 3017 3012 3006 3001 2995 2989 2985 2984 2983 2980 2980 2982 2985 2989 2993 2998 3004 3008 3013 3018 3025
3075 3071 3068 3066 3065 3064 3063 3063 3062 3060 3059 3053 3039 3037 3035 3035 3036 3035 3033 3031 3027 3024 3021 3016 3012 3007 3001 2997 2990 2984 2981 2978 2979 2977 2976 2980 2983 2987 2992 2997 3002 3008 3014 3021
3075 3073 3068 3065 3063 3061 3061 3060 3060 3060 3057 3055 3051 3036 3034 3033 3034 3032 3032 3030 3027 3023 3020 3016 3012 3007 3003 2999 2994 2985 2980 2977 2976 2975 2974 2974 2976 2979 2985 2990 2997 3002 3009 3014
3074 3071 3065 3064 3061 3060 3059 3058 3058 3058 3056 3053 3050 3037 3032 3032 3031 3030 3028 3027 3026 3023 3020 3016 3012 3008 3005 3001 2996 2990 2984 2981 2976 2976 2971 2971 2973 2970 2981 2987 2991 2998 3004 3010
3071 3068 3064 3061 3061 3057 3055 3055 3055 3054 3053 3049 3049 3033 3030 3029 3028 3026 3026 3025 3024 3023 3021 3018 3014 3011 3006 3002 2998 2993 2990 2986 2981 2981 2977 2975 2975 2974 2981 2986 2983 2981 2998 3008
3069 3065 3063 3059 3055 3054 3052 3051 3051 3050 3048 3042 3035 3029 3029 3028 3024 3022 3022 3022 3021 3020 3019 3018 3016 3013 3009 3006 3001 2998 2994 2991 2986 2984 2981 2982 2983 2984 2983 2986 2991 2995 3002 3005
3067 3062 3059 3055 3051 3048 3045 3043 3045 3041 3041 3037 3028 3024 3025 3024 3022 3020 3017 3017 3017 3017 3016 3016 3015 3013 3011 3008 3005 3002 2999 2996 2992 2988 2985 2986 2985 2987 2987 2990 2993 2995 2999 3002
3063 3060 3055 3047 3045 3043 3038 3036 3035 3036 3033 3029 3026 3020 3020 3018 3017 3015 3014 3013 3014 3014 3013 3013 3012 3012 3010 3009 3007 3005 3002 3001 2998 2996 2992 2990 2989 2988 2988 2988 2990 2993 2993 2998
3060 3057 3056 3046 3044 3039 3031 3025 3026 3027 3027 3028 3023 3021 3017 3016 3014 3013 3011 3009 3010 3010 3010 3010 3009 3008 3008 3007 3006 3005 3004 3003 3001 2999 2996 2994 2993 2992 2992 2992 2993 2993 2993 2996
3058 3056 3055 3049 3046 3042 3029 3027 3026 3024 3024 3023 3021 3020 3018 3015 3012 3011 3009 3007 3006 3006 3007 3007 3006 3006 3005 3005 3004 3003 3003 3003 3003 3001 3000 2998 2998 2996 2997 2997 2997 2997 2997 2998
3055 3055 3053 3049 3047 3037 3026 3025 3023 3023 3022 3020 3019 3019 3016 3013 3011 3010 3006 3005 3004 3003 3003 3002 3003 3003 3003 3002 3002 3001 3000 3001 3002 3002 3001 3001 3000 3000 2999 2999 2999 3000 3000 3000
3049 3050 3052 3048 3046 3038 3027 3027 3025 3023 3019 3019 3018 3016 3014 3011 3009 3008 3006 3003 3002 3000 3000 2999 2999 2998 2998 2998 2999 2998 2997 2996 2997 2998 2999 2999 2999 2999 2999 3000 3000 3000 3000 3000
3045 3043 3042 3042 3040 3028 3022 3023 3024 3023 3021 3015 3015 3014 3012 3010 3008 3005 3003 3001 2999 2997 2997 2996 2995 2995 2994 2994 2993 2994 2994 2994 2993 2993 2994 2994 2995 2996 2996 2996 2996 2996 2997 2997
3042 3040 3036 3035 3034 3023 3017 3018 3020 3018 3013 3011 3011 3009 3007 3006 3004 3002 3000 2998 2996 2995 2994 2993 2992 2991 2990 2990 2990 2989 2990 2989 2990 2990 2990 2990 2990 2990 2991 2991 2992 2992 2993 2993
3037 3034 3031 3029 3019 3015 3013 3013 3014 3010 3008 3007 3004 3002 3000 2999 2999 2997 2996 2995 2993 2992 2991 2990 2989 2988 2987 2986 2986 2986 2986 2986 2985 2986 2987 2987 2987 2987 2987 2987 2988 2988 2988 2988
3023 3023 3017 3016 3010 3010 3008 3004 3003 3002 2999 3000 2997 2994 2992 2992 2991 2991 2990 2989 2989 2987 2986 2986 2985 2984 2984 2984 2983 2983 2982 2981 2981 2982 2982 2983 2983 2983 2984 2985 2983 2983 2982 2982
3017 3012 3008 2999 3000 2999 3000 2996 2993 2990 2989 2989 2988 2986 2985 2984 2984 2983 2983 2983 2982 2982 2982 2981 2981 2979 2979 2979 2979 2979 2979 2979 2978 2978 2979 2979 2979 2979 2980 2980 2980 2980 2980 2981
2998 2998 3001 2988 2996 2994 2991 2988 2985 2983 2984 2982 2980 2978 2977 2975 2974 2974 2974 2975 2975 2974 2973 2973 2974 2974 2975 2974 2974 2974 2973 2973 2973 2973 2973 2973 2974 2975 2974 2974 2975 2974 2975 2975
Wind_Speed
7 10 7 12 10 11 14 17 17 18 13 17 18 22 19 17 17 22 23 33 28 31 30 32 34 36 35 38 43 45 45 43 44 43 45 44 49 52 57 60 56 57 51 51
10 10 9 14 15 11 13 16 19 16 15 17 20 25 22 14 21 22 25 30 30 32 33 31 29 31 28 30 33 38 38 37 41 42 45 45 42 44 47 58 59 56 60 55
11 7 15 10 10 13 14 14 13 12 14 21 22 28 23 14 21 19 25 27 29 30 29 31 27 22 21 25 28 30 31 30 36 44 42 46 45 42 44 51 58 58 58 59
5 5 14 9 11 9 13 11 11 18 9 8 3 7 8 18 14 21 23 25 27 22 20 26 29 22 22 26 26 25 26 30 32 40 41 46 47 46 44 46 53 63 57 59
2 11 9 10 9 12 7 12 11 3 9 13 17 9 9 18 16 18 20 23 18 19 23 20 22 24 19 21 20 21 20 21 27 31 37 43 48 46 41 42 45 58 62 58
6 8 9 6 7 9 3 6 7 3 9 5 12 12 9 15 12 16 15 15 15 12 16 16 21 27 21 16 19 21 14 17 22 25 36 36 44 42 39 38 40 51 59 56
9 9 12 8 7 6 6 10 3 3 4 4 10 9 15 16 14 13 12 12 11 12 15 11 16 21 16 18 22 15 15 16 17 21 28 35 39 41 38 33 36 44 59 63
7 5 6 11 7 3 2 3 3 4 2 1 9 7 6 10 12 11 12 12 10 10 14 15 17 20 19 19 19 10 12 11 13 14 22 26 33 37 36 35 32 37 49 60
5 5 8 5 6 3 2 3 5 4 9 4 7 7 10 12 9 11 10 9 10 9 9 13 16 18 18 21 18 16 15 14 14 13 14 21 28 38 40 39 37 33 40 45
5 8 6 11 6 2 3 6 2 1 2 4 6 8 7 8 10 11 10 9 9 8 10 12 11 16 21 19 21 20 12 11 15 17 20 22 26 33 36 38 38 34 35 33
7 5 4 8 4 5 4 2 2 5 5 2 3 4 10 12 12 11 11 11 10 11 12 13 13 16 19 21 23 29 22 12 10 12 11 20 26 26 30 32 34 31 38 34
10 7 10 2 10 11 9 7 7 4 1 7 4 9 10 11 10 10 10 10 11 10 11 14 16 17 17 20 17 23 15 12 9 3 11 15 7 23 27 27 31 29 28 30
11 5 9 3 9 6 9 7 10 10 11 13 3 6 9 15 18 14 12 10 9 10 8 11 13 14 16 18 20 21 20 16 24 8 5 7 4 23 21 25 24 18 27 30
13 11 13 12 11 16 20 18 14 14 8 8 21 24 18 19 17 23 12 11 9 10 9 7 9 11 13 15 17 18 18 20 13 19 5 5 8 13 13 11 12 14 15 15
12 15 18 20 24 24 27 27 22 25 22 14 10 21 22 20 21 20 22 14 11 10 10 9 7 7 8 10 13 16 16 16 18 12 13 17 14 10 13 14 12 13 13 13
20 13 24 29 13 12 21 20 23 27 29 31 28 25 11 11 12 14 14 14 15 13 12 11 10 8 8 7 7 10 12 14 14 14 17 7 8 14 10 12 17 17 19 15
20 11 15 10 14 25 21 6 17 22 21 19 21 17 19 18 16 13 13 12 13 15 15 15 13 13 11 10 8 6 6 7 9 11 13 14 11 12 7 6 7 3 9 10
19 16 10 15 17 4 6 10 10 12 12 16 16 11 16 19 15 14 14 12 11 12 15 17 17 16 15 15 13 11 9 6 5 5 6 7 8 9 6 8 9 9 9 8
15 16 7 5 10 25 16 10 12 14 14 15 11 12 14 16 17 11 13 11 10 11 11 13 17 18 19 18 17 16 15 12 9 6 5 3 1 0 1 1 1 2 3 4
14 14 14 5 3 5 10 12 9 8 13 2 11 15 14 15 17 16 13 12 12 11 9 10 12 14 17 18 19 19 18 17 15 13 10 9 8 8 7 7 7 7 7 7
12 15 22 20 11 14 24 18 14 6 4 15 18 16 16 16 17 15 15 16 15 14 13 12 11 11 14 15 18 18 17 17 16 15 13 11 10 11 11 11 11 12 12 13
14 11 11 9 10 13 3 8 11 12 17 30 24 19 23 23 21 20 17 17 17 17 16 15 15 14 13 14 15 17 17 18 18 16 15 14 13 13 11 12 13 12 11 13
21 23 18 17 19 23 30 34 33 33 39 40 34 31 31 27 24 23 20 19 18 19 19 18 18 16 16 16 16 15 16 18 19 19 19 18 17 16 15 16 18 16 16 17
34 34 38 35 39 34 36 40 39 38 40 32 35 38 38 32 25 24 25 22 21 21 20 21 21 21 19 19 18 18 18 20 20 21 22 22 22 21 22 23 22 20 21 23
43 41 42 48 47 47 36 21 20 20 22 27 24 26 30 33 32 29 29 29 27 25 23 24 23 22 22 21 20 20 19 20 22 24 25 26 25 26 26 27 26 25 25 25
56 56 51 56 40 43 23 18 23 28 28 27 29 31 32 35 34 33 31 29 29 29 27 25 24 24 23 24 21 20 21 20 21 22 24 26 27 28 28 27 26 26 25 23
Wind_Direction
292 302 296 304 277 279 288 289 283 280 257 271 269 271 270 259 272 269 262 272 289 289 289 288 291 290 277 263 262 258 260 249 245 240 235 236 235 231 229 228 226 227 226 231
304 302 292 278 289 299 284 283 273 281 272 269 280 275 267 259 255 264 275 285 297 299 306 309 308 300 293 278 261 261 257 250 241 236 237 231 235 238 236 230 227 225 226 228
280 280 288 305 295 294 286 279 275 273 272 268 278 286 257 224 238 264 279 303 303 308 309 313 313 301 287 296 278 268 262 253 239 232 232 230 229 232 231 233 227 226 226 226
309 264 288 305 295 304 305 285 270 283 281 271 183 294 211 199 230 264 296 303 301 304 309 311 316 312 294 294 281 271 273 257 241 233 235 227 228 230 233 231 228 224 227 226
334 313 289 289 307 292 286 301 298 247 260 279 277 247 252 205 248 285 309 314 315 305 310 312 322 319 317 304 282 275 271 272 253 240 240 234 226 227 230 233 233 225 226 227
306 288 305 305 312 337 344 318 294 263 261 269 239 217 209 221 267 304 325 327 333 329 317 300 321 337 319 323 296 267 276 275 264 252 243 241 231 230 232 232 231 226 225 219
310 285 308 319 2 310 359 311 205 226 197 236 168 203 247 269 290 305 339 336 344 356 2 332 331 353 346 356 353 246 264 280 266 254 246 239 229 226 228 232 229 226 223 222
314 296 320 311 309 244 268 359 336 320 335 307 185 233 227 257 292 322 345 352 346 347 357 360 357 9 358 350 349 309 269 287 292 269 250 241 229 227 230 234 231 231 223 225
310 272 290 321 332 341 164 329 279 292 284 292 228 223 254 266 286 316 331 348 344 346 332 352 24 18 358 358 347 333 322 298 294 291 260 245 237 230 229 232 236 236 224 222
291 293 290 302 303 323 313 300 289 227 297 294 253 240 237 258 266 301 316 342 4 18 355 355 9 23 17 10 355 350 323 305 315 298 261 236 235 235 234 233 237 234 220 211
309 267 299 303 281 260 290 306 306 270 248 232 298 256 218 255 282 294 308 328 351 14 19 17 17 18 17 9 25 24 12 354 301 291 267 248 228 226 227 224 222 221 215 213
314 281 279 286 270 276 270 252 242 231 316 253 271 274 281 293 293 292 300 315 329 360 15 23 21 23 21 25 17 11 6 19 354 283 20 207 257 223 203 201 204 198 199 200
322 294 307 274 275 265 252 263 252 253 265 254 272 267 308 318 313 291 282 293 305 321 359 16 26 23 21 22 25 31 36 32 61 45 96 102 52 147 183 203 212 202 185 202
301 278 264 245 273 288 281 279 260 247 234 241 239 274 280 305 314 307 288 273 281 295 313 348 7 19 24 23 15 23 32 34 49 76 185 156 153 169 191 178 185 180 194 204
301 293 289 288 290 276 271 270 256 252 251 249 275 285 302 288 268 268 288 266 261 262 279 297 318 344 3 17 22 20 19 28 40 43 75 119 85 147 190 194 214 211 193 192
305 293 304 307 300 290 282 268 265 254 262 268 282 299 314 322 320 300 292 271 253 254 252 267 281 295 314 338 357 12 18 25 29 39 58 76 134 101 133 119 128 142 179 192
291 292 314 293 311 306 293 301 246 257 266 275 275 311 312 317 317 318 311 296 267 251 251 254 264 274 281 290 303 323 351 10 25 33 45 49 58 86 103 142 177 146 174 194
264 280 292 291 321 313 307 301 284 277 277 282 284 312 302 309 311 317 320 315 296 268 254 255 258 264 272 279 287 295 304 317 339 360 26 46 67 76 79 82 89 97 104 109
260 256 270 272 301 299 302 319 271 273 301 294 280 314 310 302 307 322 309 311 310 299 277 263 257 261 266 269 273 279 283 288 286 288 299 308 324 343 101 41 128 139 150 161
268 241 232 235 263 264 306 318 306 284 302 344 331 318 308 306 301 298 306 304 307 305 303 287 271 262 259 262 267 269 272 278 280 276 268 267 265 257 253 248 245 246 250 248
247 244 240 244 247 266 286 291 280 251 256 313 314 313 319 308 299 300 294 294 296 298 299 297 293 282 269 260 259 262 265 267 269 273 272 265 257 251 250 253 253 253 252 252
267 260 236 211 221 267 287 293 249 288 288 305 306 298 299 300 299 299 293 287 285 286 286 287 289 289 287 278 269 264 262 264 265 268 267 266 266 263 261 265 260 257 260 263
260 268 261 235 265 276 280 287 285 285 289 293 291 292 292 295 294 281 288 290 287 283 283 283 282 281 284 284 281 273 262 260 261 261 263 264 263 263 266 266 267 269 273 275
269 268 259 264 278 287 287 293 292 281 281 279 279 281 284 286 283 278 276 281 285 285 281 277 278 282 281 279 279 278 276 268 260 259 259 261 263 264 265 264 270 274 275 274
268 270 275 279 292 298 298 293 303 288 280 276 284 282 281 281 283 280 279 279 281 284 287 285 279 270 271 274 279 281 280 274 268 263 260 259 259 260 261 263 265 265 265 266
269 273 274 283 299 299 300 288 293 298 296 292 286 280 276 277 279 281 282 285 286 283 280 287 284 280 274 270 269 269 274 276 276 274 271 268 265 264 264 266 268 269 268 266